GFSCGP_850_temp_351.txt.gz
Temp
3 5 2 4 7 9 9 8 9 11 13 13 14 13 12 11 11 12 12 12 13 13 13 14 14 13 12 12 12 13 12 12 11 12 12 11 11 11 11 12 12 12 11 10
4 4 5 6 7 8 7 9 9 11 11 14 13 14 12 11 12 12 12 12 12 13 13 14 14 13 12 12 13 13 13 13 12 11 11 12 11 11 11 11 11 11 11 10
5 6 7 7 7 8 7 7 7 10 12 13 13 12 12 11 12 12 12 12 12 12 13 14 13 13 12 12 13 13 12 12 12 11 11 11 11 11 11 11 11 10 11 11
6 7 7 7 8 9 8 8 6 10 12 12 13 10 11 11 11 12 12 12 12 12 13 13 13 13 12 12 12 12 11 12 11 11 11 11 12 12 12 12 11 11 11 11
5 6 7 8 9 11 10 10 8 9 12 13 12 10 12 11 12 11 11 12 12 12 12 13 13 12 12 12 12 12 11 11 11 11 11 11 11 12 12 11 11 11 11 11
6 8 8 9 10 11 11 9 9 10 11 10 11 11 11 12 13 12 11 12 12 11 12 13 12 12 12 12 12 11 11 11 11 11 11 11 11 11 11 11 11 11 11 11
7 8 9 9 9 10 11 9 9 9 9 10 11 12 11 12 13 14 11 11 12 12 12 12 12 12 12 12 12 12 11 11 11 11 11 11 11 12 12 11 11 11 11 11
6 8 9 10 10 9 11 9 8 8 8 9 10 10 13 13 14 15 13 13 13 12 12 12 12 12 12 12 12 12 12 12 12 12 11 11 11 12 12 12 12 11 12 12
6 8 10 10 11 11 10 9 12 9 10 9 9 13 14 12 11 13 13 13 12 12 12 12 12 12 12 12 12 12 13 13 13 12 12 11 11 11 11 11 11 11 12 12
7 8 10 11 12 12 11 12 11 9 9 10 9 11 11 11 11 12 12 12 12 12 12 13 12 12 12 12 12 12 12 13 13 12 12 11 11 12 12 12 11 11 11 12
4 7 9 11 11 10 11 11 12 10 9 9 9 10 11 13 11 11 12 12 13 13 13 12 12 12 11 11 12 11 11 12 12 12 11 11 11 11 12 12 12 12 12 12
4 5 8 9 11 11 10 11 11 9 11 9 9 10 8 10 11 12 12 12 13 13 12 12 12 11 11 11 11 11 11 11 11 11 11 11 12 11 11 11 11 11 11 12
3 6 5 7 9 10 11 11 11 10 9 9 8 10 8 7 9 12 11 11 11 11 10 11 11 11 10 10 11 11 11 10 10 11 11 11 11 11 11 11 10 10 11 11
3 4 7 8 8 10 10 10 11 10 8 9 9 11 11 10 8 6 7 7 8 9 9 9 9 9 9 10 10 10 10 10 10 10 10 10 11 11 11 11 10 10 10 10
3 4 6 8 9 10 10 10 9 9 9 9 11 11 11 9 6 5 6 6 7 7 7 7 8 8 8 8 8 9 9 9 9 9 10 10 10 10 10 10 10 10 10 10
0 2 4 6 8 8 8 8 8 10 10 10 10 10 9 9 9 7 7 8 8 8 8 8 8 7 7 7 7 7 8 8 8 8 8 9 9 9 9 9 9 9 9 9
0 2 3 5 5 6 6 7 7 9 9 10 10 11 9 8 6 7 9 9 10 10 9 8 7 7 7 6 6 6 6 6 7 7 7 7 7 7 7 7 8 8 8 8
1 2 3 4 4 4 10 7 8 9 10 8 9 8 8 9 11 11 12 12 11 10 9 7 7 6 5 5 5 5 5 5 5 6 6 6 6 6 6 6 6 6 6 6
-1 1 4 5 4 5 8 6 5 6 8 8 8 8 7 6 7 7 8 9 9 8 6 5 4 3 3 3 3 3 3 3 3 4 4 4 4 5 5 5 5 5 5 5
-1 -0 0 3 5 4 6 4 4 6 7 4 6 6 2 4 5 5 6 7 6 6 5 3 2 1 0 -0 -0 -0 0 1 1 2 2 2 2 2 3 3 3 3 3 4
-1 -1 -0 2 4 1 2 2 3 4 6 2 3 4 2 3 4 5 5 5 5 4 3 2 1 1 0 -0 -1 -2 -1 -1 -1 -0 0 1 1 1 1 1 1 2 2 2
-1 -1 -1 -0 2 1 1 2 4 2 2 3 3 3 3 3 2 2 2 3 2 2 1 0 0 0 -0 -1 -1 -0 -0 -0 -0 -0 -0 -0 -0 0 0 0 0 1 1 1
-1 0 -0 2 1 2 3 3 4 3 3 3 3 3 4 3 1 1 1 1 0 0 -0 -1 -1 -2 -2 -2 -2 -2 -2 -2 -2 -2 -1 -1 -1 -1 -1 -1 -1 -1 -1 -1
-4 -4 -3 -0 1 2 3 4 4 4 4 4 4 3 3 4 2 1 1 -0 -1 -2 -2 -2 -3 -3 -3 -3 -3 -3 -3 -3 -3 -3 -3 -3 -3 -2 -2 -2 -2 -2 -2 -2
-2 -5 -5 -4 -3 0 4 4 4 3 3 3 3 3 2 2 2 1 -0 -1 -1 -2 -3 -3 -3 -3 -3 -3 -3 -3 -3 -3 -3 -3 -3 -3 -3 -3 -3 -3 -3 -3 -3 -3
-5 -2 -2 2 3 2 2 2 3 3 2 3 2 2 1 1 1 0 -1 -1 -2 -3 -3 -4 -4 -4 -4 -4 -4 -4 -4 -4 -4 -4 -4 -4 -4 -4 -4 -4 -4 -4 -4 -4

GFSCGP_850_temp_354.txt.gz
Temp
3 2 2 3 3 8 8 10 10 10 10 9 10 13 12 11 11 11 11 12 12 12 13 13 14 14 13 13 13 13 12 12 12 12 12 12 11 11 11 11 11 11 12 11
3 2 4 5 7 8 7 10 9 10 10 9 12 12 11 10 11 11 11 12 12 12 13 13 13 13 13 13 13 13 13 12 12 12 12 12 12 11 11 11 11 11 11 11
4 5 5 6 7 8 8 6 8 9 10 9 9 11 12 10 11 11 11 12 12 12 12 13 13 14 13 13 12 12 12 13 12 12 12 12 11 11 11 11 11 11 11 11
7 6 6 6 7 9 8 8 10 8 7 9 11 11 10 11 11 10 11 12 12 12 13 13 13 13 13 12 12 12 12 12 12 12 13 11 11 11 12 12 12 11 11 11
4 5 6 7 8 9 9 8 9 9 7 8 10 11 12 11 12 11 10 11 12 12 12 13 13 14 13 13 13 12 12 12 12 13 12 12 11 12 12 12 11 11 11 11
6 7 8 9 9 10 9 8 9 8 8 9 10 10 10 11 13 11 11 11 12 12 12 13 13 14 13 13 13 13 13 12 13 12 12 12 12 12 12 11 11 11 11 11
7 8 9 9 9 9 9 8 8 9 9 8 10 11 11 11 13 13 11 11 12 12 11 12 12 13 12 12 12 13 12 12 12 11 12 12 12 12 12 12 12 11 11 11
4 7 9 10 9 9 9 9 8 8 8 9 10 10 12 12 14 15 14 14 12 12 11 12 12 12 12 12 12 12 12 11 11 11 11 11 11 11 11 12 12 12 12 12
6 8 10 10 10 10 9 8 10 8 8 9 8 10 12 11 10 12 12 12 11 11 11 11 12 12 12 11 12 12 12 11 11 11 11 11 11 11 11 11 11 11 11 12
6 7 9 10 11 11 10 11 9 8 8 10 8 9 11 9 11 11 11 11 11 12 12 12 12 12 12 12 11 11 11 11 11 11 11 11 11 11 11 11 11 11 11 11
4 7 9 10 10 10 9 9 10 9 8 8 8 11 13 11 11 11 11 12 12 12 12 13 13 12 12 11 11 11 11 11 11 11 11 11 12 12 11 11 11 11 11 11
4 5 7 9 10 10 10 10 9 8 10 7 8 9 8 8 10 12 13 12 13 15 14 12 12 12 11 11 11 11 11 11 11 11 11 11 12 11 11 11 11 11 11 11
4 5 5 7 10 9 9 10 10 9 8 8 7 10 8 8 9 10 11 12 11 12 13 13 12 12 11 11 11 11 11 11 11 11 11 11 11 11 11 11 11 11 11 11
3 4 7 8 9 9 9 9 10 10 7 8 8 10 10 10 9 8 8 10 10 11 11 10 10 10 11 11 11 11 11 11 11 11 11 11 11 11 11 11 11 11 10 10
3 4 5 6 7 9 9 9 9 9 9 10 10 9 11 11 9 7 7 7 7 7 8 9 9 10 10 11 10 10 10 11 10 10 10 10 10 10 10 10 10 10 10 10
-1 2 4 5 7 7 8 8 7 8 9 8 9 9 10 10 7 5 7 6 6 7 9 9 9 9 10 10 9 10 10 10 9 9 9 9 9 10 10 9 10 10 10 10
-1 1 2 4 5 5 6 7 7 7 7 9 8 11 8 8 7 9 7 8 10 10 10 9 9 9 9 9 8 9 9 9 8 8 8 8 8 8 8 8 8 8 8 8
0 1 1 3 2 4 9 7 7 8 10 7 8 9 7 10 13 14 14 14 13 12 10 9 9 9 8 7 7 7 7 7 6 7 6 6 6 6 6 7 7 6 6 7
-1 1 3 2 4 4 6 6 6 6 7 7 7 8 8 8 7 8 12 13 12 11 10 9 8 7 5 5 4 4 4 4 4 4 5 5 5 5 6 5 5 5 5 5
-1 -1 0 2 5 3 6 4 3 4 4 3 3 3 5 4 6 9 9 10 9 9 9 9 7 5 4 3 3 3 2 1 1 2 3 3 3 3 3 4 4 4 4 4
-1 -2 -1 2 3 0 2 2 2 3 5 2 2 3 2 3 4 4 6 6 6 7 7 5 4 4 3 2 2 2 2 2 2 2 2 2 2 2 2 2 2 2 2 2
-2 -2 -2 -1 -1 0 2 2 3 3 3 3 3 3 3 3 4 3 4 5 5 5 4 3 2 1 1 0 0 0 1 0 0 1 1 1 1 1 1 1 1 1 1 1
-2 -1 -1 -0 0 2 3 3 5 5 4 4 4 4 4 4 4 3 2 2 2 2 2 1 1 0 -0 -1 -1 -1 -1 -1 -1 -1 -1 -1 -1 -1 -0 -0 -0 -0 -0 -0
-4 -5 -4 -2 0 1 2 4 4 4 3 4 4 4 3 4 3 3 2 2 1 0 0 -0 -1 -1 -1 -2 -2 -3 -2 -2 -2 -2 -2 -2 -2 -2 -2 -2 -2 -2 -2 -2
-3 -5 -5 -5 -3 1 5 4 4 3 3 3 3 3 3 3 3 2 2 1 0 -0 -1 -1 -2 -2 -2 -2 -3 -3 -3 -3 -3 -3 -3 -3 -3 -3 -3 -3 -3 -3 -3 -3
-4 -0 0 1 3 2 2 3 3 2 2 2 2 1 2 2 2 1 1 1 0 -1 -2 -2 -3 -3 -3 -3 -3 -3 -4 -4 -4 -4 -4 -4 -4 -4 -4 -4 -4 -4 -4 -4

GFSCGP_850_temp_357.txt.gz
Temp
4 1 1 3 5 5 5 6 11 10 11 9 10 9 10 11 11 12 11 13 13 12 13 14 14 14 14 13 13 13 13 12 12 12 12 12 12 12 12 12 12 12 11 11
4 1 4 5 4 4 5 9 9 9 9 9 9 9 11 11 12 12 12 12 12 12 13 13 13 14 14 13 13 13 12 12 12 12 12 12 12 11 11 11 11 11 11 11
3 5 5 6 7 6 7 8 9 9 9 8 8 10 10 11 11 11 11 12 12 12 14 13 13 13 14 13 13 13 12 12 12 12 12 12 12 11 11 11 11 11 11 11
5 5 5 6 7 8 7 8 9 9 9 9 7 11 11 10 10 11 11 12 12 12 13 13 13 14 14 14 13 13 12 12 12 12 12 12 12 12 11 11 12 11 11 11
4 6 6 6 8 9 7 9 8 8 7 8 7 9 9 10 11 11 11 11 12 12 13 13 13 13 14 14 13 13 12 12 12 12 11 12 12 12 12 11 11 11 11 11
5 6 7 8 8 8 8 9 9 8 8 8 8 9 9 11 13 11 11 11 12 12 13 11 11 12 13 14 13 13 13 12 12 12 12 12 11 12 12 11 11 11 11 11
7 8 8 8 7 8 9 9 8 9 8 9 8 8 9 10 14 13 10 10 12 12 12 12 12 12 13 14 13 13 12 13 13 12 12 12 13 12 12 12 12 11 11 11
5 4 8 9 9 9 8 8 8 8 9 8 8 9 10 11 14 14 13 13 13 12 12 11 12 12 13 14 13 12 13 13 12 12 12 11 12 13 12 11 12 12 12 12
6 8 9 9 10 9 8 8 10 8 8 9 8 10 11 11 10 11 12 12 11 11 11 12 11 12 12 13 13 13 13 13 13 12 12 12 11 11 11 11 11 12 12 12
6 7 9 10 10 10 9 9 9 8 8 10 8 8 11 10 11 11 11 11 12 12 12 12 12 12 13 13 12 12 13 14 13 12 11 11 11 11 11 11 11 11 11 11
4 6 8 9 9 9 8 8 9 8 7 8 9 9 9 10 10 11 11 12 11 12 12 13 13 13 13 12 12 12 12 12 12 12 11 11 11 11 11 11 11 11 11 11
4 5 7 7 9 9 8 9 8 8 9 6 7 9 8 8 7 9 11 13 14 14 14 14 13 13 13 12 12 11 12 11 11 11 11 11 11 11 11 11 11 11 11 11
4 5 5 6 9 8 8 8 8 8 7 8 7 9 8 7 9 10 9 11 12 12 12 12 13 13 13 12 12 11 12 11 11 11 11 11 11 11 11 11 11 10 10 10
3 4 6 7 8 8 8 9 8 9 7 8 7 10 10 10 10 8 9 11 11 10 11 11 11 11 13 12 12 12 11 11 11 11 11 11 11 11 11 11 11 12 11 11
2 3 5 5 6 7 8 9 8 8 8 9 8 9 10 11 11 10 10 8 10 10 10 10 10 10 10 10 10 11 11 11 11 11 11 11 10 11 11 10 11 11 11 10
-1 1 4 4 6 6 6 7 7 8 8 8 8 8 10 9 9 8 10 9 8 8 11 11 11 9 10 10 10 11 11 11 10 10 10 10 10 10 10 10 10 10 10 10
-1 2 2 3 5 5 5 7 7 7 7 8 8 11 8 7 6 9 12 12 13 11 9 11 12 11 10 10 10 10 10 9 9 9 9 9 9 9 9 9 9 9 9 9
-0 1 3 4 3 5 9 7 7 7 8 6 8 8 7 9 11 11 12 14 15 15 12 10 9 8 9 9 9 9 9 9 8 8 8 8 8 8 8 8 8 7 7 7
-1 -0 2 3 4 4 6 5 6 6 7 5 5 6 6 7 8 10 12 11 12 12 10 10 9 8 8 8 8 7 7 7 6 6 6 6 6 6 6 6 6 6 6 6
-2 -1 -0 0 4 2 5 5 3 5 5 3 2 3 3 4 5 7 8 9 9 9 9 9 8 7 7 6 6 6 6 5 5 5 5 5 5 5 4 4 4 4 4 4
-1 -1 -0 1 2 -0 1 3 3 4 5 3 2 2 2 1 2 2 5 6 6 6 7 7 6 6 5 5 4 4 3 3 3 3 3 3 3 3 3 4 4 4 4 4
-2 -2 -2 -1 -1 0 1 2 3 2 3 4 4 4 3 2 3 3 3 4 4 5 4 4 4 3 3 3 3 2 2 1 1 1 1 1 2 2 2 2 2 2 2 2
-2 -1 -1 -0 1 1 2 2 4 3 3 3 3 4 4 3 2 3 3 3 3 3 3 2 2 2 1 1 1 1 0 -0 -0 -0 -0 -0 -0 -0 -0 -0 -0 0 0 -0
-4 -6 -3 -2 -1 -1 2 3 3 3 3 3 3 3 4 4 3 2 2 2 3 2 2 1 1 1 1 0 -1 -1 -1 -1 -1 -2 -2 -2 -2 -1 -1 -1 -1 -2 -2 -2
-2 -4 -3 -5 -3 0 5 5 4 3 2 2 2 2 2 2 4 3 2 2 1 1 1 1 0 -0 -1 -1 -2 -2 -2 -2 -2 -2 -2 -2 -2 -3 -3 -3 -3 -3 -3 -3
-4 0 0 1 4 3 3 4 4 3 2 2 2 2 2 1 2 2 2 2 1 0 -0 -1 -1 -2 -2 -2 -2 -3 -3 -3 -3 -3 -3 -3 -3 -3 -4 -4 -4 -4 -4 -3

GFSCGP_850_temp_360.txt.gz
Temp
3 2 1 2 3 5 5 5 6 9 8 7 10 9 9 12 14 12 12 12 13 13 14 14 14 14 14 13 13 12 12 12 12 12 12 12 12 12 12 12 11 11 11 11
1 2 3 5 5 5 5 5 5 10 9 7 8 9 10 11 12 13 12 12 13 12 13 14 14 14 14 13 12 13 12 12 12 12 12 12 12 12 12 12 11 11 11 11
2 4 5 4 4 5 6 5 7 9 8 8 7 10 10 10 11 11 12 12 12 13 14 14 14 14 14 13 13 13 13 13 12 12 12 12 12 11 11 11 11 11 11 11
4 5 5 5 4 6 7 5 10 9 9 8 7 10 10 10 11 11 11 11 12 12 13 14 14 13 14 14 13 13 13 13 12 12 12 12 12 12 12 11 11 11 11 11
5 5 5 6 6 7 6 8 9 8 8 8 7 8 9 10 10 11 11 11 11 12 13 14 14 14 12 13 13 13 13 12 12 12 12 12 12 12 12 11 11 11 11 11
5 6 6 7 7 8 8 9 9 8 8 9 7 8 9 9 11 11 11 11 11 12 13 13 14 14 13 12 13 13 13 13 13 12 12 12 12 12 12 11 11 11 11 11
8 7 8 8 8 8 8 8 7 7 7 8 8 8 8 10 11 11 11 10 11 12 12 12 13 13 13 12 12 13 13 13 13 12 12 12 12 11 11 11 11 12 11 11
4 4 8 8 9 9 8 7 7 6 8 8 8 8 9 9 11 13 11 10 11 12 12 12 12 12 11 12 12 14 14 13 13 13 12 12 12 12 11 12 11 11 12 11
5 7 8 8 9 9 9 8 9 7 7 8 8 9 10 10 9 11 11 11 11 11 12 12 12 12 11 12 13 14 14 13 13 13 12 12 12 12 12 12 11 11 11 11
6 6 8 8 9 9 8 8 8 8 7 10 8 8 11 9 9 10 10 10 10 11 12 12 12 12 13 12 13 14 14 13 13 13 13 13 13 12 12 12 12 11 11 11
4 6 7 9 7 7 7 7 8 7 7 8 9 10 9 9 10 10 11 11 11 11 11 12 13 13 13 12 13 13 13 13 13 13 13 12 12 12 12 12 12 11 11 11
4 4 6 7 8 8 7 7 7 7 8 6 6 9 9 6 7 8 10 11 12 13 13 13 13 13 13 13 12 12 12 13 13 12 12 13 12 12 11 11 11 11 11 11
3 4 4 5 7 8 8 7 8 6 6 7 7 9 8 7 8 9 10 11 11 11 12 12 12 12 12 13 12 12 12 12 13 12 11 12 12 12 11 12 12 12 12 12
3 3 4 6 8 7 7 7 7 8 6 6 7 9 10 9 10 9 10 10 11 13 12 11 11 12 12 12 12 12 12 12 12 12 11 11 11 11 11 11 11 12 12 11
2 3 4 4 5 5 7 7 7 7 8 9 8 8 9 9 12 11 10 10 10 11 11 13 12 11 11 11 11 11 12 12 12 12 12 11 11 11 11 11 11 11 11 11
-1 2 3 3 5 5 6 6 6 7 7 9 7 8 8 10 10 9 12 10 11 12 12 12 11 12 12 12 12 11 10 11 11 11 12 12 11 10 11 11 10 10 10 10
-1 2 2 2 4 4 4 5 7 7 7 8 7 10 7 8 6 8 11 11 13 14 14 14 12 11 10 9 9 10 10 10 10 11 11 11 10 10 10 10 10 10 10 10
-1 1 2 3 3 4 8 6 7 7 9 6 7 8 8 7 9 10 11 11 12 13 12 11 11 9 8 8 9 9 10 10 10 10 10 10 10 10 10 10 9 9 9 9
-2 -0 1 3 4 4 7 6 6 6 7 5 5 4 5 5 6 7 8 9 9 10 10 10 10 9 8 7 8 9 9 9 9 8 9 9 8 9 9 9 8 8 8 7
-2 -2 0 0 3 1 5 4 3 4 5 3 3 2 2 3 5 4 5 6 7 8 9 9 8 8 6 7 8 8 8 8 7 7 7 7 7 7 6 6 6 6 6 5
-2 -1 -1 0 2 -0 1 3 4 5 5 3 2 2 2 2 2 3 4 4 4 6 6 7 7 6 5 6 6 6 6 6 6 5 5 5 5 5 5 4 4 4 4 4
-1 -2 -2 -0 1 1 1 2 4 2 3 3 3 3 2 2 2 3 3 4 3 3 4 4 5 4 4 4 4 4 4 4 4 4 4 4 4 3 3 3 3 3 3 2
-2 -1 -1 -0 1 1 2 2 3 3 3 4 4 4 4 3 3 3 3 3 3 3 3 2 2 3 3 2 2 2 2 2 2 2 2 2 2 2 1 1 1 1 1 1
-3 -6 -3 -2 0 -0 2 3 3 3 3 3 3 3 3 3 3 3 3 3 3 3 2 2 2 2 2 1 1 1 1 1 0 0 -0 -0 -0 -0 -1 -1 -1 -1 -1 -1
-3 -3 -2 -4 -3 -0 3 4 3 3 3 3 2 3 3 2 2 2 2 2 2 2 2 1 1 1 0 0 -0 -1 -1 -1 -1 -2 -2 -2 -2 -2 -2 -2 -2 -2 -2 -2
-5 -2 -0 2 3 3 3 4 4 4 2 2 2 2 2 2 2 2 2 1 1 1 0 -0 -1 -0 -0 -0 -1 -1 -2 -2 -2 -2 -2 -2 -3 -3 -3 -3 -3 -4 -4 -4